[[{"header":{"parameterUnit":"m.s-1","parameterCategory":1,"la1":30.2991,"la2":30.254,"lo1":-89.0895,"lo2":-89.0444,"dy":0.0017,"dx":0.0017,"nx":28,"ny":28,"refTime":"2024-08-25T09:00:00:Z","depth":0,"parameterNumber":2,"parameterNumberName":"U-component_of_WINDS"},"data":[0,0,0,0,0,0,0,0,0,0,0,0,0,0,0,0,0,0,0,0,0,0,0,0,0,0,0,0,0,0,0,0,0,0,0,0,0,0,0,0,0,0,0,0,0,0,0,0,0,0,0,0,0,0,0,0,0,0,-2.2155,-2.2155,0,-2.2142,-2.2141,-2.2141,-2.2048,-2.2046,-2.2044,-2.2042,-2.2029,-2.2031,-2.2033,0,0,0,0,0,0,0,0,0,0,0,0,0,-2.21,-2.2102,-2.2155,-2.2154,-2.2154,-2.2142,-2.2141,-2.2141,-2.2049,-2.2046,-2.2043,-2.2041,-2.2029,-2.2031,-2.2033,0,0,0,0,0,0,0,0,0,0,0,0,0,-2.211,-2.2102,-2.2155,-2.2107,-2.2102,-2.2142,-2.2141,-2.2141,-2.2049,-2.2046,-2.2043,-2.2039,-2.2028,-2.2031,-2.2033,-2.2118,0,0,-2.2042,-2.2043,0,0,0,0,0,0,0,0,-2.2109,-2.2112,-2.2114,-2.211,-2.2105,-2.2093,-2.2118,-2.2134,-2.205,-2.207,-2.2042,-2.2038,-2.2053,-2.2054,-2.2059,-2.2118,-2.2117,-2.2042,-2.2043,-2.2045,-2.2045,0,0,0,0,0,0,0,-2.2109,-2.2112,-2.2149,-2.2114,-2.2109,-2.2086,-2.2084,-2.212,-2.2081,-2.2068,-2.2061,-2.206,-2.205,-2.2057,-2.2058,-2.2117,-2.2042,-2.2044,-2.2046,-2.2047,-2.2244,-2.2248,0,0,0,0,0,0,-2.2115,-2.2112,-2.215,-2.2149,-2.2099,-2.209,-2.2087,-2.21,-2.208,-2.2074,-2.2063,-2.2056,-2.2054,-2.2055,-2.2057,-2.2154,-2.2045,-2.2047,-2.2049,-2.2241,-2.2245,-2.2249,0,0,0,0,0,0,-2.2114,-2.2119,-2.215,-2.2129,-2.2131,-2.2094,-2.211,-2.2102,-2.2108,-2.2077,-2.207,-2.2077,-2.2051,-2.2053,-2.2103,-2.2153,-2.2048,-2.2051,-2.2236,-2.2242,-2.2247,-2.235,0,0,0,0,0,0,-2.2113,-2.2119,-2.2151,-2.213,-2.2132,-2.2197,-2.2113,-2.2104,-2.2113,-2.2103,-2.2088,-2.2082,-2.2048,-2.21,-2.2106,-2.2154,-2.2053,-2.2232,-2.2239,-2.2245,-2.2342,-2.2358,-2.2372,0,0,0,0,0,-2.2111,-2.2181,-2.2153,-2.2158,-2.2171,-2.22,-2.2201,-2.2161,-2.2117,-2.2148,-2.2129,-2.2082,-2.2147,-2.2106,-2.2112,-2.2162,-2.2228,-2.2237,-2.2245,-2.2335,-2.2355,-2.2372,0,0,0,0,0,0,-2.2208,-2.2177,-2.2146,-2.2211,-2.2209,-2.2184,-2.2223,-2.2184,-2.2194,-2.2185,-2.2135,-2.2133,-2.219,-2.2181,-2.2137,-2.2243,-2.218,-2.2189,-2.2246,-2.2265,-2.228,-2.228,-2.2055,0,0,0,0,0,-2.2238,-2.2263,-2.2235,-2.2295,-2.2295,-2.226,-2.2271,-2.224,-2.2236,-2.2235,-2.2218,-2.2217,-2.2236,-2.225,-2.2267,-2.2341,-2.2336,-2.2378,-2.2393,-2.2406,-2.2415,-2.2452,-2.2471,-2.2276,-2.2276,-2.2276,0,0,-2.2298,-2.2284,-2.2303,-2.2314,-2.2309,-2.2337,-2.2259,-2.2292,-2.2312,-2.224,-2.2286,-2.2274,-2.2269,-2.2331,-2.2358,-2.2325,-2.2468,-2.2416,-2.2427,-2.2428,-2.2463,-2.2481,-2.2498,-2.2281,-2.228,-2.2279,0,0,-2.2421,-2.2414,-2.2463,-2.2459,-2.2452,-2.2428,-2.244,-2.2421,-2.241,-2.2456,-2.2402,-2.2426,-2.2461,-2.2459,-2.2463,-2.2586,-2.2544,-2.2593,-2.2672,-2.2709,-2.2725,-2.2738,-2.2781,-2.2797,-2.2602,-2.2603,-2.2603,0,-2.2497,-2.2537,-2.2493,-2.2529,-2.2535,-2.2471,-2.252,-2.2519,-2.2518,-2.2524,-2.2487,-2.253,-2.2522,-2.2582,-2.2613,-2.2618,-2.263,-2.2594,-2.2726,-2.2739,-2.2751,-2.2791,-2.2808,-2.2609,-2.2608,-2.2607,-2.2607,0,-2.263,-2.2658,-2.2698,-2.2698,-2.2709,-2.2752,-2.2715,-2.2731,-2.27,-2.268,-2.2727,-2.2716,-2.2728,-2.2741,-2.2711,-2.2797,-2.2777,-2.2735,-2.267,-2.2776,-2.2813,-2.2829,-2.2617,-2.2615,-2.2613,-2.2612,0,0,-2.2814,-2.2789,-2.2804,-2.2803,-2.2791,-2.2812,-2.2852,-2.2864,-2.2879,-2.2881,-2.2913,-2.2944,-2.2904,-2.2909,-2.2878,-2.2912,-2.301,-2.2864,-2.2864,-2.2891,-2.3103,-2.3135,-2.3154,-2.2982,-2.2985,-2.2987,-2.3103,0,-2.2931,-2.2997,-2.2959,-2.3031,-2.3056,-2.2995,-2.303,-2.3027,-2.3009,-2.3028,-2.3009,-2.3032,-2.2978,-2.298,-2.301,-2.2991,-2.3051,-2.2982,-2.3011,-2.3012,-2.3013,-2.3173,-2.3207,-2.3317,-2.3118,-2.312,-2.3122,0,-2.3077,-2.3085,-2.3159,-2.3141,-2.315,-2.3182,-2.319,-2.3209,-2.3204,-2.3189,-2.3195,-2.3156,-2.3194,-2.3131,-2.3183,-2.3137,-2.3147,-2.3139,-2.3142,-2.3143,-2.3073,-2.3177,-2.3351,-2.3368,-2.3145,-2.3143,-2.3141,0,-2.3203,-2.3232,-2.3279,-2.3281,-2.3262,-2.3285,-2.3278,-2.327,-2.328,-2.3287,-2.3292,-2.3305,-2.3311,-2.3321,-2.3287,-2.3245,-2.3343,-2.3278,-2.3332,-2.3333,-2.3354,-2.3353,-2.3532,-2.3363,-2.3362,-2.3362,-2.3362,0,-2.3338,-2.3385,-2.3335,-2.3365,-2.3416,-2.3372,-2.3424,-2.3411,-2.3404,-2.343,-2.3379,-2.3404,-2.3358,-2.3379,-2.3353,-2.34,-2.3403,-2.3392,-2.3384,-2.3396,-2.3397,-2.34,-2.3392,-2.3366,-2.3365,-2.3365,-2.3364,0,-2.3486,-2.3455,-2.3502,-2.348,-2.3476,-2.3515,-2.3496,-2.3522,-2.3502,-2.3535,-2.354,-2.3508,-2.353,-2.3497,-2.3516,-2.3498,-2.3562,-2.3543,-2.3564,-2.3558,-2.3613,-2.3608,-2.3799,-2.3822,-2.364,-2.3641,-2.3643,0,-2.3574,-2.3609,-2.359,-2.3604,-2.36,-2.3622,-2.3631,-2.359,-2.3602,-2.3599,-2.3625,-2.3643,-2.3655,-2.3693,-2.3671,-2.3685,-2.3666,-2.3732,-2.3668,-2.3678,-2.3666,-2.3664,-2.3667,-2.3745,-2.3747,-2.3749,-2.375,0,-2.3732,-2.3715,-2.373,-2.374,-2.3752,-2.3758,-2.3761,-2.3775,-2.3731,-2.3747,-2.3768,-2.3778,-2.3796,-2.3815,-2.3823,-2.3816,-2.3777,-2.3771,-2.3784,-2.3796,-2.3805,-2.38,-2.3598,-2.3766,-2.3765,-2.3764,-2.3763,-2.3762,-2.3852,-2.388,-2.3871,-2.389,-2.3887,-2.389,-2.3914,-2.3896,-2.3913,-2.3924,-2.3899,-2.3927,-2.3921,-2.3928,-2.3926,-2.3947,-2.3918,-2.3937,-2.3942,-2.3947,-2.3955,-2.3803,-2.3949,-2.3948,-2.3948,-2.3947,-2.3947,0,-2.4007,-2.3999,-2.4016,-2.402,-2.4035,-2.3996,-2.3996,-2.4011,-2.4036,-2.4034,-2.4046,-2.4071,-2.4088,-2.4068,-2.4082,-2.4103,-2.4085,-2.4108,-2.4105,-2.4104,-2.3981,-2.3968,-2.4122,-2.4122,-2.4122,-2.4122,-2.4122,-2.4122,-2.409,-2.4135,-2.4116,-2.4159,-2.415,-2.4176,-2.418,-2.4183,-2.418,-2.421,-2.4224,-2.4211,-2.4201,-2.4214,-2.4228,-2.4222,-2.4229,-2.4258,-2.4246,-2.413,-2.4113,-2.4097,-2.4084,-2.4261,-2.4261,-2.4367,-2.4368,-2.4369]},{"header":{"parameterUnit":"m.s-1","parameterCategory":1,"la1":30.2991,"la2":30.254,"lo1":-89.0895,"lo2":-89.0444,"dy":0.0017,"dx":0.0017,"nx":28,"ny":28,"refTime":"2024-08-25T09:00:00:Z","depth":0,"parameterNumber":3,"parameterNumberName":"V-component_of_WINDS"},"data":[0,0,0,0,0,0,0,0,0,0,0,0,0,0,0,0,0,0,0,0,0,0,0,0,0,0,0,0,0,0,0,0,0,0,0,0,0,0,0,0,0,0,0,0,0,0,0,0,0,0,0,0,0,0,0,0,0,0,1.6101,1.6101,0,1.6118,1.6118,1.6118,1.6109,1.6109,1.6108,1.6108,1.6123,1.6124,1.6125,0,0,0,0,0,0,0,0,0,0,0,0,0,1.6059,1.606,1.6101,1.6101,1.6101,1.6118,1.6118,1.6118,1.6109,1.6109,1.6108,1.6108,1.6123,1.6124,1.6125,0,0,0,0,0,0,0,0,0,0,0,0,0,1.6077,1.606,1.6101,1.6099,1.6099,1.6118,1.6118,1.6118,1.6109,1.6109,1.6108,1.6107,1.6122,1.6124,1.6125,1.6146,0,0,1.6128,1.6129,0,0,0,0,0,0,0,0,1.6076,1.6078,1.6099,1.6099,1.6099,1.6111,1.6109,1.6127,1.611,1.6105,1.6108,1.6107,1.6119,1.6121,1.6125,1.6147,1.6147,1.6129,1.6129,1.613,1.613,0,0,0,0,0,0,0,1.6075,1.6078,1.6108,1.6099,1.6099,1.6097,1.6098,1.6112,1.6116,1.6106,1.6105,1.6107,1.6119,1.6124,1.6126,1.6147,1.6129,1.613,1.613,1.6131,1.6187,1.6187,0,0,0,0,0,0,1.6074,1.6077,1.6107,1.6108,1.6086,1.6098,1.61,1.6108,1.6116,1.6116,1.6108,1.6107,1.6122,1.6124,1.6126,1.6151,1.613,1.6131,1.6132,1.6186,1.6187,1.6187,0,0,0,0,0,0,1.6073,1.6077,1.6106,1.6092,1.6096,1.6099,1.6108,1.6108,1.6113,1.6117,1.6118,1.6112,1.6122,1.6124,1.6141,1.6151,1.6132,1.6133,1.6185,1.6186,1.6187,1.6201,0,0,0,0,0,0,1.6072,1.6076,1.6085,1.6093,1.6097,1.6122,1.6109,1.6109,1.6116,1.6115,1.6122,1.6122,1.6122,1.6139,1.6142,1.6153,1.6134,1.6184,1.6185,1.6187,1.62,1.6202,1.6205,0,0,0,0,0,1.607,1.6088,1.6085,1.6089,1.6107,1.6122,1.6125,1.6124,1.6117,1.6125,1.6127,1.6122,1.615,1.6141,1.6144,1.6155,1.6183,1.6185,1.6187,1.6198,1.6202,1.6205,0,0,0,0,0,0,1.608,1.6089,1.6086,1.6106,1.6114,1.6121,1.6131,1.6128,1.6137,1.6135,1.6134,1.6135,1.6153,1.6156,1.6146,1.6176,1.6165,1.6168,1.6173,1.6177,1.6179,1.6178,1.6135,0,0,0,0,0,1.6085,1.6097,1.6103,1.6121,1.6125,1.6127,1.6134,1.6133,1.614,1.6143,1.6147,1.6153,1.6164,1.617,1.618,1.62,1.6201,1.621,1.6212,1.6214,1.6216,1.6227,1.623,1.6193,1.6193,1.6193,0,0,1.6094,1.61,1.6108,1.6123,1.6128,1.614,1.613,1.6143,1.6151,1.6145,1.6161,1.6164,1.6171,1.619,1.6198,1.6193,1.6227,1.6216,1.6218,1.6219,1.6229,1.6232,1.6235,1.6194,1.6194,1.6194,0,0,1.6117,1.6123,1.6138,1.6144,1.6153,1.6155,1.6159,1.6167,1.6169,1.6185,1.618,1.619,1.6208,1.6213,1.6219,1.6245,1.624,1.6248,1.6261,1.6271,1.6274,1.6277,1.6285,1.6289,1.625,1.625,1.625,0,1.6127,1.6145,1.6146,1.616,1.6166,1.6162,1.6177,1.6182,1.6194,1.6198,1.6192,1.6215,1.6219,1.6239,1.6246,1.625,1.6254,1.6246,1.6274,1.6277,1.6279,1.6287,1.629,1.6251,1.6251,1.625,1.625,0,1.6157,1.617,1.6181,1.6193,1.6201,1.6215,1.6217,1.6225,1.6224,1.6226,1.6243,1.6249,1.6259,1.6264,1.6263,1.6284,1.628,1.6274,1.6263,1.6283,1.6291,1.6294,1.6252,1.6252,1.6251,1.6251,0,0,1.6185,1.6199,1.6203,1.6208,1.6218,1.6228,1.6242,1.6253,1.6259,1.6268,1.6279,1.6294,1.6289,1.6295,1.6294,1.6304,1.6323,1.6297,1.6297,1.6301,1.6346,1.635,1.6353,1.6321,1.6321,1.6322,1.6345,0,1.6209,1.6234,1.6235,1.6257,1.6269,1.6266,1.6278,1.6285,1.6287,1.6297,1.63,1.6311,1.6304,1.6307,1.6316,1.6319,1.6332,1.6317,1.633,1.633,1.6327,1.6357,1.6361,1.6383,1.6348,1.6349,1.6349,0,1.6239,1.6249,1.6273,1.6281,1.6286,1.6297,1.6308,1.6318,1.6325,1.6327,1.6334,1.6332,1.6345,1.6335,1.6353,1.6343,1.6349,1.6351,1.6352,1.6352,1.634,1.6358,1.639,1.6393,1.6354,1.6354,1.6353,0,1.6256,1.6276,1.6293,1.6297,1.6308,1.6316,1.632,1.6328,1.6335,1.6344,1.6348,1.6359,1.6364,1.6372,1.6373,1.6365,1.6391,1.6381,1.6392,1.6392,1.6396,1.6396,1.6429,1.6401,1.6401,1.6401,1.6401,0,1.6281,1.6296,1.6301,1.6311,1.6327,1.6328,1.6344,1.6348,1.6355,1.6365,1.6363,1.6373,1.6373,1.6383,1.6384,1.6399,1.6401,1.6402,1.6402,1.6402,1.6402,1.6405,1.6403,1.6402,1.6402,1.6402,1.6402,0,1.6303,1.6307,1.6325,1.6334,1.6337,1.6348,1.6355,1.6365,1.6368,1.6381,1.6384,1.6389,1.64,1.6402,1.6415,1.6416,1.6433,1.6432,1.6431,1.643,1.6441,1.644,1.6477,1.6481,1.6451,1.6452,1.6452,0,1.6318,1.633,1.634,1.6348,1.6353,1.6365,1.6372,1.6374,1.6381,1.6392,1.64,1.6411,1.642,1.6439,1.6443,1.6453,1.6451,1.6464,1.6453,1.6452,1.6451,1.645,1.645,1.6465,1.6466,1.6466,1.6466,0,1.6345,1.6347,1.6358,1.6369,1.6378,1.6387,1.6396,1.6402,1.6405,1.6413,1.6426,1.6433,1.6447,1.6458,1.6469,1.6473,1.647,1.647,1.6473,1.6472,1.6471,1.6471,1.6436,1.6469,1.6468,1.6468,1.6468,1.6468,1.6363,1.6373,1.6383,1.6395,1.6402,1.641,1.642,1.6424,1.6435,1.6447,1.6447,1.6461,1.6468,1.6482,1.6487,1.6497,1.6493,1.6497,1.6498,1.6499,1.65,1.647,1.6499,1.6499,1.6499,1.6498,1.6498,0,1.6389,1.6396,1.6407,1.642,1.6429,1.6427,1.6436,1.6444,1.6456,1.6464,1.6474,1.6488,1.6499,1.6504,1.6515,1.6522,1.6521,1.6524,1.6523,1.6524,1.6503,1.6499,1.6525,1.6525,1.6525,1.6525,1.6525,1.6525,1.6404,1.6421,1.6423,1.6443,1.6449,1.6463,1.6468,1.6476,1.6482,1.6498,1.6508,1.6511,1.6518,1.6529,1.6539,1.654,1.6544,1.6548,1.6549,1.6528,1.6526,1.6523,1.6519,1.6549,1.6549,1.6569,1.6569,1.6569]}]]